Location: Newark
(50.4348°N, 30.5552°E)
Time: 15:28:09
(UTC+00:00)

Tiros 1 despin weight - Pass Details

Date: 29 January 2020
Orbit: 594 x 642 km, 48.2° (Epoch: 16 February)

Event Time Altitude Azimuth Distance (km) Brightness Sun altitude
Rises 09:06:37 0° 244° (WSW) 2,853 ? 20.1°
Reaches altitude 10° 09:08:56 10° 239° (WSW) 1,958 ? 20.2°
Maximum altitude 09:13:18 52° 164° (SSE) 769 ? 20.4°
Drops below altitude 10° 09:17:45 10° 88° (E) 1,993 ? 20.5°
Sets 09:20:07 0° 84° (E) 2,909 ? 20.6°
